When you browse on this site, cookies collect data to enhance your experience and personalize the content and advertising you see.
Visit our Privacy Policy to learn more. By continuing to use the site, you agree to this use of cookies and data.
  • In Czech Republic
  • List of Countries
  • For 7 days
  • Water Temperature
  • Satellite Maps
  • Weather Map
  • Weather Widgets
  • user-avatar
    Login

    Hourly Weather Guiyang

    Today, 17 January, Thursday

    Time Temperature Precipitation Wind Pressure Humidity
    00:00 +3°C° 0 mm 1 mps 665 mmHg 83%
    01:00 +3°C° 0 mm 1 mps 665 mmHg 84%
    02:00 +3°C° 0 mm 1 mps 665 mmHg 84%
    03:00 +2°C° 0 mm 1 mps 665 mmHg 85%
    04:00 +2°C° 0 mm 1 mps 664 mmHg 86%
    05:00 +2°C° 0 mm 1 mps 665 mmHg 86%
    06:00 +2°C° 0 mm 1 mps 665 mmHg 86%
    07:00 +2°C° 0 mm 1 mps 665 mmHg 86%
    08:00 +4°C° 0 mm 1 mps 665 mmHg 78%
    09:00 +6°C° 0 mm 1 mps 666 mmHg 70%
    10:00 +8°C° 0 mm 1 mps 666 mmHg 62%
    11:00 +10°C° 0 mm 1 mps 666 mmHg 59%
    12:00 +10°C° 0 mm 2 mps 665 mmHg 57%
    13:00 +13°C° 0 mm 2 mps 665 mmHg 54%
    14:00 +12°C° 0 mm 3 mps 665 mmHg 55%
    15:00 +12°C° 0 mm 3 mps 664 mmHg 56%
    16:00 +12°C° 0 mm 4 mps 664 mmHg 57%
    17:00 +11°C° 0 mm 3 mps 664 mmHg 63%
    18:00 +9°C° 0 mm 3 mps 664 mmHg 70%
    19:00 +8°C° 0 mm 3 mps 663 mmHg 76%
    20:00 +7°C° 0 mm 3 mps 663 mmHg 77%
    21:00 +7°C° 0 mm 3 mps 663 mmHg 78%
    22:00 +5°C° 0 mm 3 mps 663 mmHg 79%
    23:00 +5°C° 0 mm 3 mps 663 mmHg 81%

    Tomorrow, 18 January, Friday

    Time Temperature Precipitation Wind Pressure Humidity
    00:00 +5°C° 0 mm 3 mps 662 mmHg 82%
    01:00 +4°C° 0 mm 3 mps 662 mmHg 84%
    02:00 +4°C° 0 mm 3 mps 662 mmHg 85%
    03:00 +4°C° 0 mm 3 mps 661 mmHg 87%
    04:00 +4°C° 0 mm 3 mps 661 mmHg 88%
    05:00 +3°C° 0 mm 3 mps 661 mmHg 88%
    06:00 +3°C° 0 mm 3 mps 661 mmHg 89%
    07:00 +3°C° 0 mm 3 mps 661 mmHg 89%
    08:00 +5°C° 0 mm 4 mps 661 mmHg 83%
    09:00 +8°C° 0 mm 5 mps 662 mmHg 76%
    10:00 +10°C° 0 mm 7 mps 662 mmHg 70%
    11:00 +11°C° 0 mm 7 mps 662 mmHg 66%
    12:00 +14°C° 0 mm 7 mps 661 mmHg 63%
    13:00 +15°C° 0 mm 8 mps 661 mmHg 60%
    14:00 +15°C° 0 mm 7 mps 660 mmHg 62%
    15:00 +14°C° 0 mm 7 mps 660 mmHg 63%
    16:00 +14°C° 0 mm 7 mps 659 mmHg 65%
    17:00 +12°C° 0 mm 7 mps 659 mmHg 72%
    18:00 +11°C° 0 mm 6 mps 659 mmHg 80%
    19:00 +9°C° 0 mm 6 mps 660 mmHg 87%
    20:00 +9°C° 0 mm 6 mps 660 mmHg 89%
    21:00 +9°C° 0 mm 5 mps 660 mmHg 90%
    22:00 +9°C° 0 mm 5 mps 660 mmHg 92%
    23:00 +10°C° 0 mm 4 mps 660 mmHg 93%

    Day after tomorrow, 19 January, Saturday

    Time Temperature Precipitation Wind Pressure Humidity
    00:00 +10°C° 0 mm 3 mps 660 mmHg 93%
    01:00 +10°C° 0 mm 2 mps 660 mmHg 94%
    02:00 +10°C° 0 mm 2 mps 660 mmHg 94%
    03:00 +11°C° 0 mm 1 mps 660 mmHg 95%
    04:00 +11°C° 0 mm 1 mps 660 mmHg 95%
    05:00 +11°C° 0 mm 1 mps 661 mmHg 96%
    06:00 +11°C° 0 mm 1 mps 661 mmHg 96%
    07:00 +11°C° 0 mm 1 mps 661 mmHg 96%
    08:00 +11°C° 0 mm 1 mps 662 mmHg 94%
    09:00 +12°C° 0 mm 1 mps 662 mmHg 92%
    10:00 +12°C° 0 mm 1 mps 663 mmHg 90%
    11:00 +12°C° 0.1 mm 1 mps 662 mmHg 89%
    12:00 +12°C° 0.1 mm 1 mps 662 mmHg 88%
    13:00 +13°C° 0.1 mm 1 mps 661 mmHg 86%
    14:00 +13°C° 0.1 mm 1 mps 661 mmHg 86%
    15:00 +13°C° 0.1 mm 2 mps 660 mmHg 86%
    16:00 +13°C° 0.1 mm 2 mps 660 mmHg 87%
    17:00 +13°C° 0.1 mm 2 mps 661 mmHg 89%
    18:00 +12°C° 0.1 mm 2 mps 661 mmHg 91%
    19:00 +12°C° 0.1 mm 2 mps 662 mmHg 93%
    20:00 +12°C° 0.2 mm 2 mps 662 mmHg 93%
    21:00 +12°C° 0.2 mm 2 mps 662 mmHg 94%
    22:00 +12°C° 0.2 mm 2 mps 663 mmHg 95%
    23:00 +12°C° 0.7 mm 2 mps 663 mmHg 95%

    20 January, Sunday

    Time Temperature Precipitation Wind Pressure Humidity
    00:00 +12°C° 0.7 mm 1 mps 663 mmHg 96%
    01:00 +12°C° 0.7 mm 1 mps 663 mmHg 96%
    02:00 +12°C° 1.4 mm 1 mps 663 mmHg 96%
    03:00 +10°C° 1.4 mm 2 mps 663 mmHg 96%
    04:00 +10°C° 1.4 mm 2 mps 663 mmHg 96%
    05:00 +10°C° 0.5 mm 2 mps 663 mmHg 95%
    06:00 +9°C° 0.5 mm 3 mps 663 mmHg 93%
    07:00 +9°C° 0.5 mm 3 mps 664 mmHg 92%
    08:00 +9°C° 0.2 mm 3 mps 664 mmHg 91%
    09:00 +9°C° 0.2 mm 3 mps 665 mmHg 90%
    10:00 +9°C° 0.2 mm 3 mps 665 mmHg 89%
    11:00 +9°C° 0.1 mm 3 mps 665 mmHg 88%
    12:00 +8°C° 0.1 mm 3 mps 664 mmHg 86%
    13:00 +8°C° 0.1 mm 3 mps 664 mmHg 85%
    14:00 +8°C° 0.1 mm 3 mps 663 mmHg 85%
    15:00 +7°C° 0.1 mm 3 mps 663 mmHg 85%
    16:00 +6°C° 0.1 mm 4 mps 663 mmHg 85%
    17:00 +5°C° 0.1 mm 3 mps 663 mmHg 85%
    18:00 +5°C° 0.1 mm 3 mps 663 mmHg 86%
    19:00 +4°C° 0.1 mm 3 mps 664 mmHg 86%
    20:00 +4°C° 0.5 mm 3 mps 664 mmHg 87%
    21:00 +4°C° 0.5 mm 3 mps 665 mmHg 88%
    22:00 +4°C° 0.5 mm 3 mps 665 mmHg 89%
    23:00 +3°C° 0.8 mm 3 mps 665 mmHg 89%

    21 January, Monday

    Time Temperature Precipitation Wind Pressure Humidity
    00:00 +3°C° 0.8 mm 3 mps 665 mmHg 90%
    01:00 +3°C° 0.8 mm 3 mps 665 mmHg 90%
    02:00 +3°C° 0.6 mm 3 mps 665 mmHg 90%
    03:00 +3°C° 0.6 mm 3 mps 665 mmHg 89%
    04:00 +3°C° 0.6 mm 3 mps 665 mmHg 89%
    05:00 +3°C° 0.1 mm 3 mps 665 mmHg 89%
    06:00 +4°C° 0.1 mm 2 mps 665 mmHg 89%
    07:00 +3°C° 0.1 mm 2 mps 666 mmHg 89%
    08:00 +4°C° 0.1 mm 2 mps 666 mmHg 86%
    09:00 +5°C° 0.1 mm 2 mps 667 mmHg 84%
    10:00 +6°C° 0.1 mm 2 mps 667 mmHg 81%
    11:00 +6°C° 0 mm 2 mps 667 mmHg 80%
    12:00 +5°C° 0 mm 3 mps 666 mmHg 80%
    13:00 +7°C° 0 mm 3 mps 665 mmHg 79%
    14:00 +5°C° 0 mm 3 mps 665 mmHg 80%
    15:00 +5°C° 0 mm 3 mps 665 mmHg 82%
    16:00 +5°C° 0 mm 3 mps 665 mmHg 83%
    17:00 +5°C° 0 mm 3 mps 665 mmHg 84%
    18:00 +5°C° 0 mm 3 mps 666 mmHg 85%
    19:00 +4°C° 0 mm 3 mps 666 mmHg 86%
    20:00 +4°C° 0.2 mm 3 mps 666 mmHg 87%
    21:00 +4°C° 0.2 mm 3 mps 667 mmHg 88%
    22:00 +4°C° 0.2 mm 3 mps 667 mmHg 88%
    23:00 +4°C° 0.2 mm 3 mps 667 mmHg 89%

    22 January, Tuesday

    Time Temperature Precipitation Wind Pressure Humidity
    00:00 +4°C° 0.2 mm 3 mps 667 mmHg 89%
    01:00 +5°C° 0.2 mm 2 mps 667 mmHg 89%
    02:00 +5°C° 0.2 mm 2 mps 666 mmHg 89%
    03:00 +5°C° 0.2 mm 2 mps 666 mmHg 89%
    04:00 +5°C° 0.2 mm 2 mps 666 mmHg 89%
    05:00 +5°C° 0.1 mm 2 mps 666 mmHg 89%
    06:00 +4°C° 0.1 mm 2 mps 666 mmHg 89%
    07:00 +4°C° 0.1 mm 2 mps 667 mmHg 89%
    08:00 +5°C° 0 mm 2 mps 667 mmHg 84%
    09:00 +6°C° 0 mm 2 mps 667 mmHg 80%
    10:00 +7°C° 0 mm 2 mps 667 mmHg 75%
    11:00 +7°C° 0 mm 2 mps 667 mmHg 73%
    12:00 +8°C° 0 mm 2 mps 666 mmHg 71%
    13:00 +9°C° 0 mm 2 mps 665 mmHg 69%
    14:00 +9°C° 0 mm 2 mps 665 mmHg 71%
    15:00 +8°C° 0 mm 2 mps 664 mmHg 73%
    16:00 +8°C° 0 mm 2 mps 664 mmHg 75%
    17:00 +8°C° 0 mm 2 mps 664 mmHg 78%
    18:00 +8°C° 0 mm 2 mps 664 mmHg 80%
    19:00 +7°C° 0 mm 2 mps 665 mmHg 83%
    20:00 +7°C° 0 mm 2 mps 665 mmHg 84%
    21:00 +7°C° 0 mm 2 mps 665 mmHg 85%
    22:00 +8°C° 0 mm 1 mps 665 mmHg 86%
    23:00 +8°C° 0 mm 1 mps 665 mmHg 87%
    Show more